Time,TemperatureF,DewpointF,PressureIn,WindDirection,WindDirectionDegrees,WindSpeedMPH,WindSpeedGustMPH,Humidity,HourlyPrecipIn,Conditions,Clouds,dailyrainin,SoftwareType,DateUTC
2013-09-21 00:01:00,48.6,42.4,29.99,West,259,0.0,0.0,79,0.00,,,0.00,WUHU216DAVISVP2,2013-09-21 05:01:00,
2013-09-21 00:06:00,48.5,42.3,29.99,West,259,0.0,0.0,79,0.00,,,0.00,WUHU216DAVISVP2,2013-09-21 05:06:00,
2013-09-21 00:11:00,48.3,41.5,29.99,West,259,0.0,0.0,77,0.00,,,0.00,WUHU216DAVISVP2,2013-09-21 05:11:00,
2013-09-21 00:16:00,48.1,41.6,29.99,West,259,0.0,0.0,78,0.00,,,0.00,WUHU216DAVISVP2,2013-09-21 05:16:00,
2013-09-21 00:21:00,48.0,41.8,29.99,West,259,0.0,0.0,79,0.00,,,0.00,WUHU216DAVISVP2,2013-09-21 05:21:00,
2013-09-21 00:26:00,48.0,41.8,30.00,West,259,0.0,0.0,79,0.00,,,0.00,WUHU216DAVISVP2,2013-09-21 05:26:00,
2013-09-21 00:31:00,47.9,42.1,30.00,West,259,0.0,0.0,80,0.00,,,0.00,WUHU216DAVISVP2,2013-09-21 05:31:00,
2013-09-21 00:36:00,47.8,42.3,30.00,West,259,0.0,0.0,81,0.00,,,0.00,WUHU216DAVISVP2,2013-09-21 05:36:00,
2013-09-21 00:41:00,47.6,42.1,29.99,West,259,0.0,0.0,81,0.00,,,0.00,WUHU216DAVISVP2,2013-09-21 05:41:00,
2013-09-21 00:46:00,47.6,42.4,29.99,West,259,0.0,0.0,82,0.00,,,0.00,WUHU216DAVISVP2,2013-09-21 05:46:00,
2013-09-21 00:51:00,47.6,42.1,29.99,West,259,0.0,0.0,81,0.00,,,0.00,WUHU216DAVISVP2,2013-09-21 05:51:00,
2013-09-21 00:56:00,47.6,42.1,29.99,West,259,0.0,0.0,81,0.00,,,0.00,WUHU216DAVISVP2,2013-09-21 05:56:00,
2013-09-21 01:01:00,47.4,42.2,29.99,West,259,0.0,0.0,82,0.00,,,0.00,WUHU216DAVISVP2,2013-09-21 06:01:00,
2013-09-21 01:06:00,47.3,42.4,30.00,West,259,0.0,0.0,83,0.00,,,0.00,WUHU216DAVISVP2,2013-09-21 06:06:00,
2013-09-21 01:11:00,47.1,42.2,30.00,West,259,0.0,0.0,83,0.00,,,0.00,WUHU216DAVISVP2,2013-09-21 06:11:00,
2013-09-21 01:16:00,46.9,41.7,30.00,West,259,0.0,0.0,82,0.00,,,0.00,WUHU216DAVISVP2,2013-09-21 06:16:00,
2013-09-21 01:21:00,46.8,42.2,30.00,West,259,0.0,0.0,84,0.00,,,0.00,WUHU216DAVISVP2,2013-09-21 06:21:00,
2013-09-21 01:26:00,46.8,41.9,29.99,West,259,0.0,0.0,83,0.00,,,0.00,WUHU216DAVISVP2,2013-09-21 06:26:00,
2013-09-21 01:31:00,46.7,42.1,29.99,West,259,0.0,0.0,84,0.00,,,0.00,WUHU216DAVISVP2,2013-09-21 06:31:00,
2013-09-21 01:36:00,46.5,41.9,29.99,West,259,0.0,0.0,84,0.00,,,0.00,WUHU216DAVISVP2,2013-09-21 06:36:00,
2013-09-21 01:41:00,46.4,41.5,29.99,West,259,0.0,1.0,83,0.00,,,0.00,WUHU216DAVISVP2,2013-09-21 06:41:00,
2013-09-21 01:46:00,46.5,41.3,30.00,West,259,0.0,1.0,82,0.00,,,0.00,WUHU216DAVISVP2,2013-09-21 06:46:00,
2013-09-21 01:51:00,46.5,41.3,30.00,West,259,0.0,1.0,82,0.00,,,0.00,WUHU216DAVISVP2,2013-09-21 06:51:00,
2013-09-21 01:56:00,46.4,41.2,30.00,West,259,0.0,1.0,82,0.00,,,0.00,WUHU216DAVISVP2,2013-09-21 06:56:00,
2013-09-21 02:01:00,46.4,41.5,30.00,West,259,0.0,0.0,83,0.00,,,0.00,WUHU216DAVISVP2,2013-09-21 07:01:00,
2013-09-21 02:06:00,46.4,41.5,30.00,West,259,0.0,0.0,83,0.00,,,0.00,WUHU216DAVISVP2,2013-09-21 07:06:00,
2013-09-21 02:11:00,46.4,41.2,30.00,West,259,0.0,0.0,82,0.00,,,0.00,WUHU216DAVISVP2,2013-09-21 07:11:00,
2013-09-21 02:16:00,46.3,41.1,30.00,West,259,0.0,0.0,82,0.00,,,0.00,WUHU216DAVISVP2,2013-09-21 07:16:00,
2013-09-21 02:21:00,46.1,41.2,30.00,West,259,0.0,0.0,83,0.00,,,0.00,WUHU216DAVISVP2,2013-09-21 07:21:00,
2013-09-21 02:26:00,46.1,41.2,30.00,West,259,0.0,0.0,83,0.00,,,0.00,WUHU216DAVISVP2,2013-09-21 07:26:00,
2013-09-21 02:31:00,46.0,41.1,30.00,West,259,0.0,0.0,83,0.00,,,0.00,WUHU216DAVISVP2,2013-09-21 07:31:00,
2013-09-21 02:36:00,45.9,41.0,30.00,West,259,0.0,0.0,83,0.00,,,0.00,WUHU216DAVISVP2,2013-09-21 07:36:00,
2013-09-21 02:41:00,45.7,40.8,30.00,West,259,0.0,0.0,83,0.00,,,0.00,WUHU216DAVISVP2,2013-09-21 07:41:00,
2013-09-21 02:46:00,45.6,41.0,30.00,West,259,0.0,0.0,84,0.00,,,0.00,WUHU216DAVISVP2,2013-09-21 07:46:00,
2013-09-21 02:51:00,45.4,40.8,30.00,West,259,0.0,0.0,84,0.00,,,0.00,WUHU216DAVISVP2,2013-09-21 07:51:00,
2013-09-21 02:56:00,45.4,41.1,30.00,West,259,0.0,0.0,85,0.00,,,0.00,WUHU216DAVISVP2,2013-09-21 07:56:00,
2013-09-21 03:01:00,45.3,40.7,30.00,West,259,0.0,0.0,84,0.00,,,0.00,WUHU216DAVISVP2,2013-09-21 08:01:00,
2013-09-21 03:06:00,45.3,41.0,30.00,West,259,0.0,0.0,85,0.00,,,0.00,WUHU216DAVISVP2,2013-09-21 08:06:00,
2013-09-21 03:11:00,45.3,41.0,30.00,West,259,0.0,0.0,85,0.00,,,0.00,WUHU216DAVISVP2,2013-09-21 08:11:00,
2013-09-21 03:16:00,45.3,40.4,30.00,West,259,0.0,0.0,83,0.00,,,0.00,WUHU216DAVISVP2,2013-09-21 08:16:00,
2013-09-21 03:21:00,45.3,40.4,29.99,West,259,0.0,0.0,83,0.00,,,0.00,WUHU216DAVISVP2,2013-09-21 08:21:00,
2013-09-21 03:26:00,45.5,40.6,29.99,West,259,0.0,0.0,83,0.00,,,0.00,WUHU216DAVISVP2,2013-09-21 08:26:00,
2013-09-21 03:31:00,45.5,40.6,29.99,West,259,0.0,0.0,83,0.00,,,0.00,WUHU216DAVISVP2,2013-09-21 08:31:00,
2013-09-21 03:36:00,45.5,40.6,29.99,West,259,0.0,0.0,83,0.00,,,0.00,WUHU216DAVISVP2,2013-09-21 08:36:00,
2013-09-21 03:41:00,45.4,40.5,29.98,West,259,0.0,0.0,83,0.00,,,0.00,WUHU216DAVISVP2,2013-09-21 08:41:00,
2013-09-21 03:46:00,45.3,40.4,29.98,West,259,0.0,0.0,83,0.00,,,0.00,WUHU216DAVISVP2,2013-09-21 08:46:00,
2013-09-21 03:51:00,45.3,40.4,29.98,West,259,0.0,0.0,83,0.00,,,0.00,WUHU216DAVISVP2,2013-09-21 08:51:00,
2013-09-21 03:56:00,45.2,40.3,29.98,West,259,0.0,0.0,83,0.00,,,0.00,WUHU216DAVISVP2,2013-09-21 08:56:00,
2013-09-21 04:01:00,45.0,40.5,29.98,West,259,0.0,0.0,84,0.00,,,0.00,WUHU216DAVISVP2,2013-09-21 09:01:00,
2013-09-21 04:06:00,44.8,40.6,29.98,West,259,0.0,0.0,85,0.00,,,0.00,WUHU216DAVISVP2,2013-09-21 09:06:00,
2013-09-21 04:11:00,44.6,40.7,29.98,West,259,0.0,0.0,86,0.00,,,0.00,WUHU216DAVISVP2,2013-09-21 09:11:00,
2013-09-21 04:16:00,44.4,40.5,29.98,West,259,0.0,0.0,86,0.00,,,0.00,WUHU216DAVISVP2,2013-09-21 09:16:00,
2013-09-21 04:21:00,44.4,40.7,29.98,West,259,0.0,0.0,87,0.00,,,0.00,WUHU216DAVISVP2,2013-09-21 09:21:00,
2013-09-21 04:26:00,44.5,40.8,29.98,West,259,0.0,1.0,87,0.00,,,0.00,WUHU216DAVISVP2,2013-09-21 09:26:00,
2013-09-21 04:31:00,44.6,40.9,29.98,West,259,0.0,1.0,87,0.00,,,0.00,WUHU216DAVISVP2,2013-09-21 09:31:00,
2013-09-21 04:36:00,44.6,40.9,29.98,West,259,0.0,1.0,87,0.00,,,0.00,WUHU216DAVISVP2,2013-09-21 09:36:00,
2013-09-21 04:41:00,44.6,40.9,29.98,West,259,0.0,1.0,87,0.00,,,0.00,WUHU216DAVISVP2,2013-09-21 09:41:00,
2013-09-21 04:46:00,44.5,40.8,29.98,West,259,0.0,0.0,87,0.00,,,0.00,WUHU216DAVISVP2,2013-09-21 09:46:00,
2013-09-21 04:51:00,44.5,40.9,29.98,West,259,0.0,0.0,87,0.00,,,0.00,WUHU216DAVISVP2,2013-09-21 09:51:00,
2013-09-21 04:56:00,44.4,40.8,29.98,West,259,0.0,0.0,87,0.00,,,0.00,WUHU216DAVISVP2,2013-09-21 09:56:00,
2013-09-21 05:01:00,44.1,40.5,29.98,West,259,0.0,0.0,87,0.00,,,0.00,WUHU216DAVISVP2,2013-09-21 10:01:00,
2013-09-21 05:06:00,43.9,40.6,29.98,West,259,0.0,0.0,88,0.00,,,0.00,WUHU216DAVISVP2,2013-09-21 10:06:00,
2013-09-21 05:11:00,43.9,40.5,29.98,West,259,0.0,0.0,88,0.00,,,0.00,WUHU216DAVISVP2,2013-09-21 10:11:00,
2013-09-21 05:16:00,43.6,40.5,29.98,West,259,0.0,0.0,89,0.00,,,0.00,WUHU216DAVISVP2,2013-09-21 10:16:00,
2013-09-21 05:21:00,43.5,40.4,29.98,West,259,0.0,0.0,89,0.00,,,0.00,WUHU216DAVISVP2,2013-09-21 10:21:00,
2013-09-21 05:26:00,43.5,40.7,29.98,West,259,0.0,0.0,90,0.00,,,0.00,WUHU216DAVISVP2,2013-09-21 10:26:00,
2013-09-21 05:31:00,43.4,40.3,29.99,West,259,0.0,0.0,89,0.00,,,0.00,WUHU216DAVISVP2,2013-09-21 10:31:00,
2013-09-21 05:36:00,43.3,40.5,29.99,West,259,0.0,0.0,90,0.00,,,0.00,WUHU216DAVISVP2,2013-09-21 10:36:00,
2013-09-21 05:41:00,43.2,40.1,29.98,West,259,0.0,0.0,89,0.00,,,0.00,WUHU216DAVISVP2,2013-09-21 10:41:00,
2013-09-21 05:46:00,43.1,40.0,29.98,West,259,0.0,0.0,89,0.00,,,0.00,WUHU216DAVISVP2,2013-09-21 10:46:00,
2013-09-21 05:51:00,42.9,39.8,29.99,West,259,0.0,0.0,89,0.00,,,0.00,WUHU216DAVISVP2,2013-09-21 10:51:00,
2013-09-21 05:56:00,42.9,40.1,29.99,West,259,0.0,0.0,90,0.00,,,0.00,WUHU216DAVISVP2,2013-09-21 10:56:00,
2013-09-21 06:01:00,42.9,40.1,29.99,West,259,0.0,0.0,90,0.00,,,0.00,WUHU216DAVISVP2,2013-09-21 11:01:00,
2013-09-21 06:06:00,42.9,39.8,29.99,West,259,0.0,0.0,89,0.00,,,0.00,WUHU216DAVISVP2,2013-09-21 11:06:00,
2013-09-21 06:11:00,42.8,39.7,29.99,West,259,0.0,0.0,89,0.00,,,0.00,WUHU216DAVISVP2,2013-09-21 11:11:00,
2013-09-21 06:16:00,42.7,39.9,29.99,West,259,0.0,0.0,90,0.00,,,0.00,WUHU216DAVISVP2,2013-09-21 11:16:00,
2013-09-21 06:21:00,42.5,39.4,29.99,West,259,0.0,0.0,89,0.00,,,0.00,WUHU216DAVISVP2,2013-09-21 11:21:00,
2013-09-21 06:26:00,42.5,39.7,29.99,West,259,0.0,0.0,90,0.00,,,0.00,WUHU216DAVISVP2,2013-09-21 11:26:00,
2013-09-21 06:31:00,42.5,39.7,29.99,West,259,0.0,0.0,90,0.00,,,0.00,WUHU216DAVISVP2,2013-09-21 11:31:00,
2013-09-21 06:36:00,42.4,39.6,29.99,West,259,0.0,0.0,90,0.00,,,0.00,WUHU216DAVISVP2,2013-09-21 11:36:00,
2013-09-21 06:41:00,42.4,39.7,29.99,West,259,0.0,0.0,90,0.00,,,0.00,WUHU216DAVISVP2,2013-09-21 11:41:00,
2013-09-21 06:46:00,42.3,39.6,29.99,West,259,0.0,0.0,90,0.00,,,0.00,WUHU216DAVISVP2,2013-09-21 11:46:00,
2013-09-21 06:51:00,42.2,39.5,29.99,West,259,0.0,0.0,90,0.00,,,0.00,WUHU216DAVISVP2,2013-09-21 11:51:00,
2013-09-21 06:56:00,42.3,39.6,29.99,West,259,0.0,0.0,90,0.00,,,0.00,WUHU216DAVISVP2,2013-09-21 11:56:00,
2013-09-21 07:01:00,42.4,39.7,29.99,West,259,0.0,0.0,90,0.00,,,0.00,WUHU216DAVISVP2,2013-09-21 12:01:00,
2013-09-21 07:06:00,42.3,39.5,29.99,West,259,0.0,0.0,90,0.00,,,0.00,WUHU216DAVISVP2,2013-09-21 12:06:00,
2013-09-21 07:11:00,42.3,39.5,29.99,West,259,0.0,0.0,90,0.00,,,0.00,WUHU216DAVISVP2,2013-09-21 12:11:00,
2013-09-21 07:16:00,42.4,39.6,29.99,West,259,0.0,0.0,90,0.00,,,0.00,WUHU216DAVISVP2,2013-09-21 12:16:00,
2013-09-21 07:21:00,42.3,39.5,29.99,West,259,0.0,0.0,90,0.00,,,0.00,WUHU216DAVISVP2,2013-09-21 12:21:00,
2013-09-21 07:26:00,42.3,39.5,29.99,West,259,0.0,0.0,90,0.00,,,0.00,WUHU216DAVISVP2,2013-09-21 12:26:00,
2013-09-21 07:31:00,42.4,39.6,29.99,West,259,0.0,0.0,90,0.00,,,0.00,WUHU216DAVISVP2,2013-09-21 12:31:00,
2013-09-21 07:36:00,42.4,39.6,29.99,West,259,0.0,0.0,90,0.00,,,0.00,WUHU216DAVISVP2,2013-09-21 12:36:00,
2013-09-21 07:41:00,42.5,39.7,29.99,West,259,0.0,0.0,90,0.00,,,0.00,WUHU216DAVISVP2,2013-09-21 12:41:00,
2013-09-21 07:46:00,42.6,39.8,29.99,West,259,0.0,0.0,90,0.00,,,0.00,WUHU216DAVISVP2,2013-09-21 12:46:00,
2013-09-21 07:51:00,42.7,39.9,29.99,West,259,0.0,0.0,90,0.00,,,0.00,WUHU216DAVISVP2,2013-09-21 12:51:00,
2013-09-21 07:56:00,42.9,40.1,30.00,West,259,0.0,0.0,90,0.00,,,0.00,WUHU216DAVISVP2,2013-09-21 12:56:00,
2013-09-21 08:01:00,43.1,40.3,30.00,West,259,0.0,0.0,90,0.00,,,0.00,WUHU216DAVISVP2,2013-09-21 13:01:00,
2013-09-21 08:06:00,43.3,40.8,30.00,West,259,0.0,0.0,91,0.00,,,0.00,WUHU216DAVISVP2,2013-09-21 13:06:00,
2013-09-21 08:11:00,43.8,41.0,30.00,West,259,0.0,0.0,90,0.00,,,0.00,WUHU216DAVISVP2,2013-09-21 13:11:00,
2013-09-21 08:16:00,44.3,41.5,29.99,West,259,0.0,0.0,90,0.00,,,0.00,WUHU216DAVISVP2,2013-09-21 13:16:00,
2013-09-21 08:21:00,45.0,41.9,29.99,West,259,0.0,0.0,89,0.00,,,0.00,WUHU216DAVISVP2,2013-09-21 13:21:00,
2013-09-21 08:26:00,45.9,42.2,30.00,West,259,0.0,1.0,87,0.00,,,0.00,WUHU216DAVISVP2,2013-09-21 13:26:00,
2013-09-21 08:31:00,46.7,42.7,30.00,West,259,0.0,1.0,86,0.00,,,0.00,WUHU216DAVISVP2,2013-09-21 13:31:00,
2013-09-21 08:36:00,48.0,43.1,30.00,West,259,0.0,1.0,83,0.00,,,0.00,WUHU216DAVISVP2,2013-09-21 13:36:00,
2013-09-21 08:41:00,49.3,43.4,30.00,West,260,0.0,1.0,80,0.00,,,0.00,WUHU216DAVISVP2,2013-09-21 13:41:00,
2013-09-21 08:46:00,50.2,43.6,30.00,West,259,0.0,1.0,78,0.00,,,0.00,WUHU216DAVISVP2,2013-09-21 13:46:00,
2013-09-21 08:51:00,51.3,43.3,30.00,East,90,0.0,1.0,74,0.00,,,0.00,WUHU216DAVISVP2,2013-09-21 13:51:00,
2013-09-21 08:56:00,51.7,43.7,30.00,East,86,0.0,1.0,74,0.00,,,0.00,WUHU216DAVISVP2,2013-09-21 13:56:00,
2013-09-21 09:01:00,52.2,44.2,30.00,East,86,1.0,1.0,74,0.00,,,0.00,WUHU216DAVISVP2,2013-09-21 14:01:00,
2013-09-21 09:06:00,52.2,44.6,30.00,East,86,0.0,1.0,75,0.00,,,0.00,WUHU216DAVISVP2,2013-09-21 14:06:00,
2013-09-21 09:11:00,52.4,44.8,30.00,ESE,109,0.0,1.0,75,0.00,,,0.00,WUHU216DAVISVP2,2013-09-21 14:11:00,
2013-09-21 09:16:00,53.0,44.7,30.00,East,89,0.0,1.0,73,0.00,,,0.00,WUHU216DAVISVP2,2013-09-21 14:16:00,
2013-09-21 09:21:00,53.3,45.0,30.00,East,90,0.0,1.0,73,0.00,,,0.00,WUHU216DAVISVP2,2013-09-21 14:21:00,
2013-09-21 09:26:00,53.5,44.8,30.00,SE,126,0.0,1.0,72,0.00,,,0.00,WUHU216DAVISVP2,2013-09-21 14:26:00,
2013-09-21 09:31:00,53.5,44.8,30.00,SE,124,0.0,1.0,72,0.00,,,0.00,WUHU216DAVISVP2,2013-09-21 14:31:00,
2013-09-21 09:36:00,53.8,44.7,30.01,SE,137,0.0,1.0,71,0.00,,,0.00,WUHU216DAVISVP2,2013-09-21 14:36:00,
2013-09-21 09:41:00,54.3,44.8,30.01,ESE,117,0.0,3.0,70,0.00,,,0.00,WUHU216DAVISVP2,2013-09-21 14:41:00,
2013-09-21 09:46:00,54.8,45.3,30.00,SE,125,0.0,3.0,70,0.00,,,0.00,WUHU216DAVISVP2,2013-09-21 14:46:00,
2013-09-21 09:51:00,55.4,45.0,30.01,East,82,0.0,3.0,68,0.00,,,0.00,WUHU216DAVISVP2,2013-09-21 14:51:00,
2013-09-21 09:56:00,55.3,45.0,30.01,South,177,0.0,3.0,68,0.00,,,0.00,WUHU216DAVISVP2,2013-09-21 14:56:00,
2013-09-21 10:01:00,55.3,44.7,30.00,East,81,2.0,6.0,67,0.00,,,0.00,WUHU216DAVISVP2,2013-09-21 15:01:00,
2013-09-21 10:06:00,55.4,45.1,30.00,ENE,75,1.0,6.0,68,0.00,,,0.00,WUHU216DAVISVP2,2013-09-21 15:06:00,
2013-09-21 10:11:00,55.9,44.7,30.00,SE,146,0.0,6.0,66,0.00,,,0.00,WUHU216DAVISVP2,2013-09-21 15:11:00,
2013-09-21 10:16:00,56.5,45.3,30.00,ESE,110,1.0,6.0,66,0.00,,,0.00,WUHU216DAVISVP2,2013-09-21 15:16:00,
2013-09-21 10:21:00,57.1,45.0,30.00,East,79,1.0,4.0,64,0.00,,,0.00,WUHU216DAVISVP2,2013-09-21 15:21:00,
2013-09-21 10:26:00,57.6,46.1,30.00,ESE,102,1.0,4.0,65,0.00,,,0.00,WUHU216DAVISVP2,2013-09-21 15:26:00,
2013-09-21 10:31:00,58.3,46.3,30.00,ESE,108,3.0,4.0,64,0.00,,,0.00,WUHU216DAVISVP2,2013-09-21 15:31:00,
2013-09-21 10:36:00,58.5,45.5,30.00,ENE,73,1.0,4.0,62,0.00,,,0.00,WUHU216DAVISVP2,2013-09-21 15:36:00,
2013-09-21 10:41:00,59.0,46.6,30.00,East,88,1.0,4.0,63,0.00,,,0.00,WUHU216DAVISVP2,2013-09-21 15:41:00,
2013-09-21 10:46:00,59.5,45.7,30.00,ESE,102,0.0,4.0,60,0.00,,,0.00,WUHU216DAVISVP2,2013-09-21 15:46:00,
2013-09-21 10:51:00,60.1,45.4,29.99,ESE,123,0.0,4.0,58,0.00,,,0.00,WUHU216DAVISVP2,2013-09-21 15:51:00,
2013-09-21 10:56:00,60.7,46.0,29.99,ESE,122,0.0,4.0,58,0.00,,,0.00,WUHU216DAVISVP2,2013-09-21 15:56:00,
2013-09-21 11:01:00,61.1,45.9,29.99,East,94,2.0,6.0,57,0.00,,,0.00,WUHU216DAVISVP2,2013-09-21 16:01:00,
2013-09-21 11:06:00,61.5,46.2,29.99,SSE,150,0.0,6.0,57,0.00,,,0.00,WUHU216DAVISVP2,2013-09-21 16:06:00,
2013-09-21 11:11:00,61.8,46.0,29.99,ESE,102,1.0,6.0,56,0.00,,,0.00,WUHU216DAVISVP2,2013-09-21 16:11:00,
2013-09-21 11:16:00,62.5,47.2,29.99,ESE,112,0.0,6.0,57,0.00,,,0.00,WUHU216DAVISVP2,2013-09-21 16:16:00,
2013-09-21 11:21:00,63.1,46.3,29.99,SE,139,1.0,4.0,54,0.00,,,0.00,WUHU216DAVISVP2,2013-09-21 16:21:00,
2013-09-21 11:26:00,63.9,47.5,29.99,SE,125,0.0,4.0,55,0.00,,,0.00,WUHU216DAVISVP2,2013-09-21 16:26:00,
2013-09-21 11:31:00,64.6,46.6,29.99,ESE,107,0.0,4.0,52,0.00,,,0.00,WUHU216DAVISVP2,2013-09-21 16:31:00,
2013-09-21 11:36:00,65.0,45.4,29.99,West,259,1.0,4.0,49,0.00,,,0.00,WUHU216DAVISVP2,2013-09-21 16:36:00,
2013-09-21 11:41:00,64.9,45.8,29.99,NNE,30,1.0,3.0,50,0.00,,,0.00,WUHU216DAVISVP2,2013-09-21 16:41:00,
2013-09-21 11:46:00,65.5,45.3,29.99,East,84,1.0,3.0,48,0.00,,,0.00,WUHU216DAVISVP2,2013-09-21 16:46:00,
2013-09-21 11:51:00,66.0,45.7,29.99,SSE,152,0.0,3.0,48,0.00,,,0.00,WUHU216DAVISVP2,2013-09-21 16:51:00,
2013-09-21 11:56:00,66.5,46.8,29.99,ESE,118,1.0,3.0,49,0.00,,,0.00,WUHU216DAVISVP2,2013-09-21 16:56:00,
2013-09-21 12:01:00,66.8,45.3,29.98,SE,127,0.0,3.0,46,0.00,,,0.00,WUHU216DAVISVP2,2013-09-21 17:01:00,
2013-09-21 12:06:00,67.1,45.0,29.98,East,93,1.0,3.0,45,0.00,,,0.00,WUHU216DAVISVP2,2013-09-21 17:06:00,
2013-09-21 12:11:00,67.1,44.4,29.98,ESE,118,1.0,4.0,44,0.00,,,0.00,WUHU216DAVISVP2,2013-09-21 17:11:00,
2013-09-21 12:16:00,67.3,45.8,29.98,SSE,149,1.0,4.0,46,0.00,,,0.00,WUHU216DAVISVP2,2013-09-21 17:16:00,
2013-09-21 12:21:00,67.6,45.5,29.98,WSW,254,0.0,4.0,45,0.00,,,0.00,WUHU216DAVISVP2,2013-09-21 17:21:00,
2013-09-21 12:26:00,67.9,43.9,29.97,SE,127,1.0,8.0,42,0.00,,,0.00,WUHU216DAVISVP2,2013-09-21 17:26:00,
2013-09-21 12:31:00,68.1,44.0,29.97,South,188,0.0,8.0,42,0.00,,,0.00,WUHU216DAVISVP2,2013-09-21 17:31:00,
2013-09-21 12:36:00,68.3,44.2,29.97,East,79,3.0,8.0,42,0.00,,,0.00,WUHU216DAVISVP2,2013-09-21 17:36:00,
2013-09-21 12:41:00,68.1,44.7,29.97,SSE,155,0.0,8.0,43,0.00,,,0.00,WUHU216DAVISVP2,2013-09-21 17:41:00,
2013-09-21 12:46:00,68.5,46.3,29.97,ESE,104,1.0,4.0,45,0.00,,,0.00,WUHU216DAVISVP2,2013-09-21 17:46:00,
2013-09-21 12:51:00,68.6,44.6,29.96,East,87,2.0,7.0,42,0.00,,,0.00,WUHU216DAVISVP2,2013-09-21 17:51:00,
2013-09-21 12:56:00,68.9,44.9,29.96,SSW,195,1.0,7.0,42,0.00,,,0.00,WUHU216DAVISVP2,2013-09-21 17:56:00,
2013-09-21 13:01:00,69.2,45.1,29.96,ENE,64,1.0,7.0,42,0.00,,,0.00,WUHU216DAVISVP2,2013-09-21 18:01:00,
2013-09-21 13:06:00,69.5,44.8,29.96,ESE,116,0.0,7.0,41,0.00,,,0.00,WUHU216DAVISVP2,2013-09-21 18:06:00,
2013-09-21 13:11:00,69.2,43.8,29.95,ESE,122,3.0,7.0,40,0.00,,,0.00,WUHU216DAVISVP2,2013-09-21 18:11:00,
2013-09-21 13:16:00,69.4,44.7,29.95,SE,140,0.0,7.0,41,0.00,,,0.00,WUHU216DAVISVP2,2013-09-21 18:16:00,
2013-09-21 13:21:00,69.8,44.9,29.95,SE,139,0.0,7.0,41,0.00,,,0.00,WUHU216DAVISVP2,2013-09-21 18:21:00,
2013-09-21 13:26:00,69.9,44.5,29.95,WSW,244,0.0,7.0,40,0.00,,,0.00,WUHU216DAVISVP2,2013-09-21 18:26:00,
2013-09-21 13:31:00,69.9,43.8,29.95,East,82,1.0,4.0,39,0.00,,,0.00,WUHU216DAVISVP2,2013-09-21 18:31:00,
2013-09-21 13:36:00,69.9,43.8,29.94,SE,135,0.0,4.0,39,0.00,,,0.00,WUHU216DAVISVP2,2013-09-21 18:36:00,
2013-09-21 13:41:00,70.1,44.0,29.94,SE,138,0.0,4.0,39,0.00,,,0.00,WUHU216DAVISVP2,2013-09-21 18:41:00,
2013-09-21 13:46:00,70.5,44.3,29.94,SSE,156,0.0,4.0,39,0.00,,,0.00,WUHU216DAVISVP2,2013-09-21 18:46:00,
2013-09-21 13:51:00,70.9,45.4,29.93,SE,124,0.0,3.0,40,0.00,,,0.00,WUHU216DAVISVP2,2013-09-21 18:51:00,
2013-09-21 13:56:00,71.3,45.1,29.93,ESE,112,0.0,3.0,39,0.00,,,0.00,WUHU216DAVISVP2,2013-09-21 18:56:00,
2013-09-21 14:01:00,71.5,44.5,29.93,SSE,158,0.0,4.0,38,0.00,,,0.00,WUHU216DAVISVP2,2013-09-21 19:01:00,
2013-09-21 14:06:00,71.8,44.0,29.93,ESE,110,0.0,6.0,37,0.00,,,0.00,WUHU216DAVISVP2,2013-09-21 19:06:00,
2013-09-21 14:11:00,71.3,43.5,29.92,East,88,3.0,11.0,37,0.00,,,0.00,WUHU216DAVISVP2,2013-09-21 19:11:00,
2013-09-21 14:16:00,71.4,44.3,29.92,South,179,1.0,11.0,38,0.00,,,0.00,WUHU216DAVISVP2,2013-09-21 19:16:00,
2013-09-21 14:21:00,71.7,43.9,29.92,SSW,203,0.0,11.0,37,0.00,,,0.00,WUHU216DAVISVP2,2013-09-21 19:21:00,
2013-09-21 14:26:00,71.9,43.3,29.92,SE,127,1.0,11.0,36,0.00,,,0.00,WUHU216DAVISVP2,2013-09-21 19:26:00,
2013-09-21 14:31:00,71.7,43.9,29.91,ENE,65,2.0,4.0,37,0.00,,,0.00,WUHU216DAVISVP2,2013-09-21 19:31:00,
2013-09-21 14:36:00,72.0,44.9,29.91,SSW,197,1.0,4.0,38,0.00,,,0.00,WUHU216DAVISVP2,2013-09-21 19:36:00,
2013-09-21 14:41:00,72.7,44.8,29.91,SE,127,1.0,4.0,37,0.00,,,0.00,WUHU216DAVISVP2,2013-09-21 19:41:00,
2013-09-21 14:46:00,72.5,44.6,29.90,East,80,3.0,6.0,37,0.00,,,0.00,WUHU216DAVISVP2,2013-09-21 19:46:00,
2013-09-21 14:51:00,72.4,44.5,29.90,East,81,2.0,7.0,37,0.00,,,0.00,WUHU216DAVISVP2,2013-09-21 19:51:00,
2013-09-21 14:56:00,72.4,45.2,29.90,ENE,75,1.0,7.0,38,0.00,,,0.00,WUHU216DAVISVP2,2013-09-21 19:56:00,
2013-09-21 15:01:00,73.0,45.8,29.90,ESE,105,2.0,7.0,38,0.00,,,0.00,WUHU216DAVISVP2,2013-09-21 20:01:00,
2013-09-21 15:06:00,73.0,44.3,29.89,East,89,3.0,7.0,36,0.00,,,0.00,WUHU216DAVISVP2,2013-09-21 20:06:00,
2013-09-21 15:11:00,72.6,44.8,29.89,ENE,76,3.0,7.0,37,0.00,,,0.00,WUHU216DAVISVP2,2013-09-21 20:11:00,
2013-09-21 15:16:00,72.7,44.9,29.89,ENE,75,3.0,7.0,37,0.00,,,0.00,WUHU216DAVISVP2,2013-09-21 20:16:00,
2013-09-21 15:21:00,73.1,45.3,29.89,ESE,115,1.0,7.0,37,0.00,,,0.00,WUHU216DAVISVP2,2013-09-21 20:21:00,
2013-09-21 15:26:00,73.0,44.5,29.88,East,87,3.0,7.0,36,0.00,,,0.00,WUHU216DAVISVP2,2013-09-21 20:26:00,
2013-09-21 15:31:00,73.1,45.3,29.88,East,98,2.0,6.0,37,0.00,,,0.00,WUHU216DAVISVP2,2013-09-21 20:31:00,
2013-09-21 15:36:00,73.4,44.8,29.88,ESE,105,1.0,6.0,36,0.00,,,0.00,WUHU216DAVISVP2,2013-09-21 20:36:00,
2013-09-21 15:41:00,73.8,45.2,29.88,ESE,103,2.0,6.0,36,0.00,,,0.00,WUHU216DAVISVP2,2013-09-21 20:41:00,
2013-09-21 15:46:00,73.9,46.0,29.88,ESE,105,4.0,7.0,37,0.00,,,0.00,WUHU216DAVISVP2,2013-09-21 20:46:00,
2013-09-21 15:51:00,73.8,45.9,29.88,SE,139,1.0,7.0,37,0.00,,,0.00,WUHU216DAVISVP2,2013-09-21 20:51:00,
2013-09-21 15:56:00,74.4,46.4,29.87,SSE,160,0.0,7.0,37,0.00,,,0.00,WUHU216DAVISVP2,2013-09-21 20:56:00,
2013-09-21 16:01:00,75.0,45.5,29.87,ESE,105,3.0,7.0,35,0.00,,,0.00,WUHU216DAVISVP2,2013-09-21 21:01:00,
2013-09-21 16:06:00,74.7,46.0,29.87,East,91,2.0,7.0,36,0.00,,,0.00,WUHU216DAVISVP2,2013-09-21 21:06:00,
2013-09-21 16:11:00,74.5,45.6,29.87,SSW,205,0.0,7.0,36,0.00,,,0.00,WUHU216DAVISVP2,2013-09-21 21:11:00,
2013-09-21 16:16:00,74.7,45.8,29.87,SSE,160,0.0,7.0,36,0.00,,,0.00,WUHU216DAVISVP2,2013-09-21 21:16:00,
2013-09-21 16:21:00,75.1,46.2,29.87,ESE,107,0.0,7.0,36,0.00,,,0.00,WUHU216DAVISVP2,2013-09-21 21:21:00,
2013-09-21 16:26:00,75.0,46.8,29.86,ESE,119,1.0,6.0,37,0.00,,,0.00,WUHU216DAVISVP2,2013-09-21 21:26:00,
2013-09-21 16:31:00,74.9,46.0,29.86,SE,126,2.0,7.0,36,0.00,,,0.00,WUHU216DAVISVP2,2013-09-21 21:31:00,
2013-09-21 16:36:00,74.9,45.2,29.86,ESE,108,2.0,7.0,35,0.00,,,0.00,WUHU216DAVISVP2,2013-09-21 21:36:00,
2013-09-21 16:41:00,74.8,45.9,29.86,SE,127,1.0,7.0,36,0.00,,,0.00,WUHU216DAVISVP2,2013-09-21 21:41:00,
2013-09-21 16:46:00,74.6,45.7,29.86,East,81,4.0,10.0,36,0.00,,,0.00,WUHU216DAVISVP2,2013-09-21 21:46:00,
2013-09-21 16:51:00,74.3,46.2,29.86,East,83,2.0,10.0,37,0.00,,,0.00,WUHU216DAVISVP2,2013-09-21 21:51:00,
2013-09-21 16:56:00,74.4,47.0,29.86,East,95,4.0,10.0,38,0.00,,,0.00,WUHU216DAVISVP2,2013-09-21 21:56:00,
2013-09-21 17:01:00,74.5,45.6,29.86,SE,140,1.0,10.0,36,0.00,,,0.00,WUHU216DAVISVP2,2013-09-21 22:01:00,
2013-09-21 17:06:00,74.4,46.3,29.85,ESE,105,3.0,7.0,37,0.00,,,0.00,WUHU216DAVISVP2,2013-09-21 22:06:00,
2013-09-21 17:11:00,74.3,46.2,29.86,ESE,102,2.0,8.0,37,0.00,,,0.00,WUHU216DAVISVP2,2013-09-21 22:11:00,
2013-09-21 17:16:00,74.6,46.5,29.85,ESE,116,1.0,8.0,37,0.00,,,0.00,WUHU216DAVISVP2,2013-09-21 22:16:00,
2013-09-21 17:21:00,75.0,46.8,29.85,East,88,2.0,8.0,37,0.00,,,0.00,WUHU216DAVISVP2,2013-09-21 22:21:00,
2013-09-21 17:26:00,74.4,46.3,29.85,ESE,104,3.0,8.0,37,0.00,,,0.00,WUHU216DAVISVP2,2013-09-21 22:26:00,
2013-09-21 17:31:00,73.8,46.5,29.86,ESE,116,2.0,7.0,38,0.00,,,0.00,WUHU216DAVISVP2,2013-09-21 22:31:00,
2013-09-21 17:36:00,73.7,46.5,29.85,ESE,109,2.0,7.0,38,0.00,,,0.00,WUHU216DAVISVP2,2013-09-21 22:36:00,
2013-09-21 17:41:00,73.4,46.9,29.85,ESE,106,1.0,7.0,39,0.00,,,0.00,WUHU216DAVISVP2,2013-09-21 22:41:00,
2013-09-21 17:46:00,73.1,47.3,29.85,ESE,120,2.0,8.0,40,0.00,,,0.00,WUHU216DAVISVP2,2013-09-21 22:46:00,
2013-09-21 17:51:00,73.0,47.2,29.85,SE,126,1.0,8.0,40,0.00,,,0.00,WUHU216DAVISVP2,2013-09-21 22:51:00,
2013-09-21 17:56:00,73.0,47.9,29.85,SE,130,1.0,8.0,41,0.00,,,0.00,WUHU216DAVISVP2,2013-09-21 22:56:00,
2013-09-21 18:01:00,73.0,47.1,29.85,SE,127,0.0,8.0,40,0.00,,,0.00,WUHU216DAVISVP2,2013-09-21 23:01:00,
2013-09-21 18:06:00,72.8,48.3,29.85,East,85,1.0,6.0,42,0.00,,,0.00,WUHU216DAVISVP2,2013-09-21 23:06:00,
2013-09-21 18:11:00,72.7,48.2,29.85,SE,133,0.0,4.0,42,0.00,,,0.00,WUHU216DAVISVP2,2013-09-21 23:11:00,
2013-09-21 18:16:00,72.4,48.6,29.85,ESE,110,1.0,4.0,43,0.00,,,0.00,WUHU216DAVISVP2,2013-09-21 23:16:00,
2013-09-21 18:21:00,72.2,47.8,29.85,SE,125,1.0,4.0,42,0.00,,,0.00,WUHU216DAVISVP2,2013-09-21 23:21:00,
2013-09-21 18:26:00,72.0,48.2,29.85,SE,126,0.0,4.0,43,0.00,,,0.00,WUHU216DAVISVP2,2013-09-21 23:26:00,
2013-09-21 18:31:00,71.7,48.6,29.85,SSE,150,0.0,4.0,44,0.00,,,0.00,WUHU216DAVISVP2,2013-09-21 23:31:00,
2013-09-21 18:36:00,71.4,48.3,29.85,SSE,155,0.0,4.0,44,0.00,,,0.00,WUHU216DAVISVP2,2013-09-21 23:36:00,
2013-09-21 18:41:00,71.1,48.7,29.85,SE,130,0.0,3.0,45,0.00,,,0.00,WUHU216DAVISVP2,2013-09-21 23:41:00,
2013-09-21 18:46:00,70.7,48.9,29.85,SE,145,0.0,0.0,46,0.00,,,0.00,WUHU216DAVISVP2,2013-09-21 23:46:00,
2013-09-21 18:51:00,70.3,48.5,29.85,ESE,111,0.0,0.0,46,0.00,,,0.00,WUHU216DAVISVP2,2013-09-21 23:51:00,
2013-09-21 18:56:00,69.9,49.3,29.85,ESE,112,0.0,0.0,48,0.00,,,0.00,WUHU216DAVISVP2,2013-09-21 23:56:00,
2013-09-21 19:01:00,69.4,48.9,29.84,SE,141,0.0,3.0,48,0.00,,,0.00,WUHU216DAVISVP2,2013-09-22 00:01:00,
2013-09-21 19:06:00,69.0,49.6,29.84,SE,140,0.0,3.0,50,0.00,,,0.00,WUHU216DAVISVP2,2013-09-22 00:06:00,
2013-09-21 19:11:00,68.5,49.7,29.84,SE,140,0.0,3.0,51,0.00,,,0.00,WUHU216DAVISVP2,2013-09-22 00:11:00,
2013-09-21 19:16:00,68.1,49.4,29.84,SE,136,0.0,1.0,51,0.00,,,0.00,WUHU216DAVISVP2,2013-09-22 00:16:00,
2013-09-21 19:21:00,67.7,49.5,29.84,SE,136,0.0,1.0,52,0.00,,,0.00,WUHU216DAVISVP2,2013-09-22 00:21:00,
2013-09-21 19:26:00,67.5,49.3,29.84,East,94,0.0,3.0,52,0.00,,,0.00,WUHU216DAVISVP2,2013-09-22 00:26:00,
2013-09-21 19:31:00,67.2,49.6,29.84,SE,139,0.0,3.0,53,0.00,,,0.00,WUHU216DAVISVP2,2013-09-22 00:31:00,
2013-09-21 19:36:00,66.9,49.3,29.84,ESE,106,1.0,6.0,53,0.00,,,0.00,WUHU216DAVISVP2,2013-09-22 00:36:00,
2013-09-21 19:41:00,66.7,49.1,29.84,SE,131,1.0,6.0,53,0.00,,,0.00,WUHU216DAVISVP2,2013-09-22 00:41:00,
2013-09-21 19:46:00,66.5,49.4,29.84,ESE,116,0.0,6.0,54,0.00,,,0.00,WUHU216DAVISVP2,2013-09-22 00:46:00,
2013-09-21 19:51:00,66.2,49.2,29.84,East,98,1.0,6.0,54,0.00,,,0.00,WUHU216DAVISVP2,2013-09-22 00:51:00,
2013-09-21 19:56:00,66.0,49.5,29.83,ESE,112,1.0,3.0,55,0.00,,,0.00,WUHU216DAVISVP2,2013-09-22 00:56:00,
2013-09-21 20:01:00,65.8,49.3,29.84,SE,131,0.0,3.0,55,0.00,,,0.00,WUHU216DAVISVP2,2013-09-22 01:01:00,
2013-09-21 20:06:00,65.4,49.4,29.84,East,93,0.0,3.0,56,0.00,,,0.00,WUHU216DAVISVP2,2013-09-22 01:06:00,
2013-09-21 20:11:00,65.0,49.5,29.84,SE,133,0.0,3.0,57,0.00,,,0.00,WUHU216DAVISVP2,2013-09-22 01:11:00,
2013-09-21 20:16:00,64.7,49.7,29.84,ESE,117,1.0,4.0,58,0.00,,,0.00,WUHU216DAVISVP2,2013-09-22 01:16:00,
2013-09-21 20:21:00,64.6,49.6,29.84,SE,131,0.0,4.0,58,0.00,,,0.00,WUHU216DAVISVP2,2013-09-22 01:21:00,
2013-09-21 20:26:00,64.5,49.5,29.84,ESE,113,0.0,4.0,58,0.00,,,0.00,WUHU216DAVISVP2,2013-09-22 01:26:00,
2013-09-21 20:31:00,64.3,49.8,29.84,East,101,1.0,4.0,59,0.00,,,0.00,WUHU216DAVISVP2,2013-09-22 01:31:00,
2013-09-21 20:36:00,64.1,49.6,29.84,SE,133,0.0,4.0,59,0.00,,,0.00,WUHU216DAVISVP2,2013-09-22 01:36:00,
2013-09-21 20:41:00,63.9,49.9,29.84,ESE,110,0.0,4.0,60,0.00,,,0.00,WUHU216DAVISVP2,2013-09-22 01:41:00,
2013-09-21 20:46:00,63.6,49.6,29.84,ESE,115,0.0,4.0,60,0.00,,,0.00,WUHU216DAVISVP2,2013-09-22 01:46:00,
2013-09-21 20:51:00,63.4,49.4,29.84,East,100,0.0,4.0,60,0.00,,,0.00,WUHU216DAVISVP2,2013-09-22 01:51:00,
2013-09-21 20:56:00,63.2,49.7,29.84,ESE,108,0.0,4.0,61,0.00,,,0.00,WUHU216DAVISVP2,2013-09-22 01:56:00,
2013-09-21 21:01:00,62.9,49.8,29.84,SE,131,0.0,4.0,62,0.00,,,0.00,WUHU216DAVISVP2,2013-09-22 02:01:00,
2013-09-21 21:06:00,62.6,50.0,29.84,SE,132,1.0,3.0,63,0.00,,,0.00,WUHU216DAVISVP2,2013-09-22 02:06:00,
2013-09-21 21:11:00,62.4,49.8,29.84,ESE,112,1.0,4.0,63,0.00,,,0.00,WUHU216DAVISVP2,2013-09-22 02:11:00,
2013-09-21 21:16:00,62.2,50.0,29.84,ESE,114,1.0,4.0,64,0.00,,,0.00,WUHU216DAVISVP2,2013-09-22 02:16:00,
2013-09-21 21:21:00,62.1,49.9,29.84,ESE,106,0.0,4.0,64,0.00,,,0.00,WUHU216DAVISVP2,2013-09-22 02:21:00,
2013-09-21 21:26:00,61.8,50.1,29.84,SE,135,1.0,4.0,65,0.00,,,0.00,WUHU216DAVISVP2,2013-09-22 02:26:00,
2013-09-21 21:31:00,61.6,49.9,29.84,ESE,119,0.0,3.0,65,0.00,,,0.00,WUHU216DAVISVP2,2013-09-22 02:31:00,
2013-09-21 21:36:00,61.3,50.0,29.84,ESE,112,0.0,3.0,66,0.00,,,0.00,WUHU216DAVISVP2,2013-09-22 02:36:00,
2013-09-21 21:41:00,61.1,50.2,29.84,SE,129,0.0,3.0,67,0.00,,,0.00,WUHU216DAVISVP2,2013-09-22 02:41:00,
2013-09-21 21:46:00,60.9,50.0,29.84,ESE,117,0.0,3.0,67,0.00,,,0.00,WUHU216DAVISVP2,2013-09-22 02:46:00,
2013-09-21 21:51:00,60.7,50.2,29.84,ESE,114,0.0,3.0,68,0.00,,,0.00,WUHU216DAVISVP2,2013-09-22 02:51:00,
2013-09-21 21:56:00,60.5,50.0,29.84,ESE,113,0.0,3.0,68,0.00,,,0.00,WUHU216DAVISVP2,2013-09-22 02:56:00,
2013-09-21 22:01:00,60.3,50.2,29.84,ESE,115,1.0,3.0,69,0.00,,,0.00,WUHU216DAVISVP2,2013-09-22 03:01:00,
2013-09-21 22:06:00,60.0,50.3,29.84,ESE,111,1.0,3.0,70,0.00,,,0.00,WUHU216DAVISVP2,2013-09-22 03:06:00,
2013-09-21 22:11:00,59.8,50.1,29.84,East,96,1.0,1.0,70,0.00,,,0.00,WUHU216DAVISVP2,2013-09-22 03:11:00,
2013-09-21 22:16:00,59.6,50.3,29.84,ESE,105,1.0,1.0,71,0.00,,,0.00,WUHU216DAVISVP2,2013-09-22 03:16:00,
2013-09-21 22:21:00,59.4,50.1,29.84,ESE,110,1.0,3.0,71,0.00,,,0.00,WUHU216DAVISVP2,2013-09-22 03:21:00,
2013-09-21 22:26:00,59.2,50.3,29.84,ESE,107,0.0,3.0,72,0.00,,,0.00,WUHU216DAVISVP2,2013-09-22 03:26:00,
2013-09-21 22:31:00,59.0,50.1,29.84,ESE,115,0.0,3.0,72,0.00,,,0.00,WUHU216DAVISVP2,2013-09-22 03:31:00,
2013-09-21 22:36:00,58.8,50.3,29.84,ESE,115,0.0,3.0,73,0.00,,,0.00,WUHU216DAVISVP2,2013-09-22 03:36:00,
2013-09-21 22:41:00,58.6,50.1,29.84,ESE,114,1.0,3.0,73,0.00,,,0.00,WUHU216DAVISVP2,2013-09-22 03:41:00,
2013-09-21 22:46:00,58.5,50.0,29.84,ESE,114,0.0,3.0,73,0.00,,,0.00,WUHU216DAVISVP2,2013-09-22 03:46:00,
2013-09-21 22:51:00,58.4,49.9,29.84,ESE,116,0.0,3.0,73,0.00,,,0.00,WUHU216DAVISVP2,2013-09-22 03:51:00,
2013-09-21 22:56:00,58.2,50.1,29.84,East,100,1.0,3.0,74,0.00,,,0.00,WUHU216DAVISVP2,2013-09-22 03:56:00,
2013-09-21 23:01:00,58.2,50.0,29.84,ESE,108,1.0,4.0,74,0.00,,,0.00,WUHU216DAVISVP2,2013-09-22 04:01:00,
2013-09-21 23:06:00,58.2,50.1,29.84,SE,124,1.0,4.0,74,0.00,,,0.00,WUHU216DAVISVP2,2013-09-22 04:06:00,
2013-09-21 23:11:00,58.0,49.9,29.84,ESE,123,1.0,4.0,74,0.00,,,0.00,WUHU216DAVISVP2,2013-09-22 04:11:00,
2013-09-21 23:16:00,58.0,49.9,29.84,SE,125,0.0,4.0,74,0.00,,,0.00,WUHU216DAVISVP2,2013-09-22 04:16:00,
2013-09-21 23:21:00,57.8,50.0,29.84,ESE,107,1.0,4.0,75,0.00,,,0.00,WUHU216DAVISVP2,2013-09-22 04:21:00,
2013-09-21 23:26:00,57.8,50.0,29.84,ESE,110,0.0,4.0,75,0.00,,,0.00,WUHU216DAVISVP2,2013-09-22 04:26:00,
2013-09-21 23:31:00,57.6,49.8,29.84,ESE,116,1.0,4.0,75,0.00,,,0.00,WUHU216DAVISVP2,2013-09-22 04:31:00,
2013-09-21 23:36:00,57.5,49.7,29.85,ESE,115,1.0,4.0,75,0.00,,,0.00,WUHU216DAVISVP2,2013-09-22 04:36:00,
2013-09-21 23:41:00,57.4,49.6,29.84,ESE,110,1.0,4.0,75,0.00,,,0.00,WUHU216DAVISVP2,2013-09-22 04:41:00,
2013-09-21 23:46:00,57.5,49.7,29.84,ESE,105,0.0,3.0,75,0.00,,,0.00,WUHU216DAVISVP2,2013-09-22 04:46:00,
2013-09-21 23:51:00,57.4,49.6,29.84,ESE,122,1.0,4.0,75,0.00,,,0.00,WUHU216DAVISVP2,2013-09-22 04:51:00,
2013-09-21 23:56:00,57.4,49.6,29.84,SE,134,1.0,4.0,75,0.00,,,0.00,WUHU216DAVISVP2,2013-09-22 04:56:00,